This is the latest recevied weather packets stored in our database for station/object IU7URP-30. If no packets are shown the sender has not sent any weather packets the latest 10 day(s).
| Time | Temp. | Humidity | Pressure | Rain* | Wind** | Luminosity | Snow |
|---|---|---|---|---|---|---|---|
| 1777730810 | 22.22° C | 21% | 1023.7 hPa | - | - | - | - |
| 1777729910 | 21.67° C | 22% | 1023.8 hPa | - | - | - | - |
| 1777729010 | 21.67° C | 21% | 1023.9 hPa | - | - | - | - |
| 1777728109 | 21.67° C | 21% | 1024.2 hPa | - | - | - | - |
| 1777727209 | 20° C | 23% | 1024.1 hPa | - | - | - | - |
| 1777726309 | 20.56° C | 22% | 1024.5 hPa | - | - | - | - |
| 1777725408 | 21.11° C | 22% | 1024.5 hPa | - | - | - | - |
| 1777724508 | 20.56° C | 24% | 1024.6 hPa | - | - | - | - |
| 1777723608 | 20.56° C | 24% | 1024.9 hPa | - | - | - | - |
| 1777722707 | 20.56° C | 26% | 1025 hPa | - | - | - | - |
| 1777686991 | 8.89° C | 57% | 1025.8 hPa | - | - | - | - |
| 1777686091 | 9.44° C | 57% | 1025.8 hPa | - | - | - | - |
| 1777683390 | 8.89° C | 52% | 1026 hPa | - | - | - | - |
| 1777682490 | 8.89° C | 48% | 1025.9 hPa | - | - | - | - |
| 1777681590 | 9.44° C | 47% | 1025.9 hPa | - | - | - | - |
| 1777680690 | 9.44° C | 46% | 1025.9 hPa | - | - | - | - |
| 1777679790 | 9.44° C | 44% | 1026.1 hPa | - | - | - | - |
| 1777678889 | 9.44° C | 42% | 1025.9 hPa | - | - | - | - |
| 1777677989 | 9.44° C | 42% | 1025.9 hPa | - | - | - | - |
| 1777677089 | 9.44° C | 38% | 1025.8 hPa | - | - | - | - |
| 1777676189 | 8.89° C | 37% | 1026 hPa | - | - | - | - |
| 1777675288 | 9.44° C | 37% | 1025.8 hPa | - | - | - | - |
| 1777674389 | 8.33° C | 37% | 1025.6 hPa | - | - | - | - |
| 1777673488 | 8.33° C | 38% | 1025.6 hPa | - | - | - | - |
| 1777672588 | 7.22° C | 39% | 1025.7 hPa | - | - | - | - |
* Rain since midnight (hover to see other rain measurements)
** Current wind speed in m/s (hover to see current wind gust speed)